This is the latest recevied weather packets stored in our database for station/object KI5NXU. If no packets are shown the sender has not sent any weather packets the latest 10 day(s).
| Time | Temp. | Humidity | Pressure | Rain* | Wind** | Luminosity | Snow |
|---|---|---|---|---|---|---|---|
| 1788219500 | 38.33° C | 30% | 1013 hPa | 0 mm | - | 144 W/m² | - |
| 1788219195 | 38.89° C | 28% | 1012.9 hPa | 0 mm | - | 168 W/m² | - |
| 1788218890 | 38.89° C | 28% | 1012.9 hPa | 0 mm | - | 193 W/m² | - |
| 1788218587 | 38.33° C | 29% | 1012.8 hPa | 0 mm | - | 212 W/m² | - |
| 1788218283 | 38.33° C | 29% | 1012.9 hPa | 0 mm | - | 225 W/m² | - |
| 1788217979 | 38.33° C | 29% | 1013 hPa | 0 mm | - | 241 W/m² | - |
| 1788217674 | 38.89° C | 28% | 1012.8 hPa | 0 mm | - | 256 W/m² | - |
| 1788217369 | 38.89° C | 28% | 1012.9 hPa | 0 mm | - | 273 W/m² | - |
| 1788217068 | 38.89° C | 28% | 1012.9 hPa | 0 mm | - | 285 W/m² | - |
| 1788216763 | 38.89° C | 28% | 1012.9 hPa | 0 mm | - | 285 W/m² | - |
| 1788216458 | 38.89° C | 28% | 1012.9 hPa | 0 mm | - | 301 W/m² | - |
| 1788216154 | 38.89° C | 28% | 1013.3 hPa | 0 mm | - | 315 W/m² | - |
| 1788215849 | 38.33° C | 29% | 1013.3 hPa | 0 mm | - | 335 W/m² | - |
| 1788215545 | 38.89° C | 27% | 1013.3 hPa | 0 mm | - | 368 W/m² | - |
| 1788215235 | 38.89° C | 27% | 1013.2 hPa | 0 mm | - | 390 W/m² | - |
| 1788214931 | 39.44° C | 26% | 1013.3 hPa | 0 mm | - | 399 W/m² | - |
| 1788214626 | 40° C | 26% | 1013.2 hPa | 0 mm | - | 405 W/m² | - |
| 1788214321 | 40.56° C | 26% | 1012.9 hPa | 0 mm | - | 417 W/m² | - |
| 1788214010 | 39.44° C | 27% | 1013 hPa | 0 mm | - | 456 W/m² | - |
| 1788213706 | 38.89° C | 28% | 1013 hPa | 0 mm | - | 464 W/m² | - |
| 1788213401 | 39.44° C | 27% | 1013.5 hPa | 0 mm | - | 460 W/m² | - |
| 1788213096 | 40° C | 26% | 1013 hPa | 0 mm | - | 474 W/m² | - |
| 1788212793 | 40° C | 27% | 1013.5 hPa | 0 mm | - | 462 W/m² | - |
| 1788212489 | 39.44° C | 27% | 1013.5 hPa | 0 mm | - | 475 W/m² | - |
| 1788212186 | 38.89° C | 28% | 1013.7 hPa | 0 mm | - | 528 W/m² | - |
* Rain latest hour (hover to see other rain measurements)
** Current wind speed in m/s (hover to see current wind gust speed)